| time (UTC) | temp F | wind direction | speed MPH | gust MPH | rain 1hr in | rain 24hr in | rain mn in | humidity % | barometer mb |
| 20260902024034 | 55 | 191 | 6.0 | 14.0 | 0.00 | 0.01 | 0.00 | 91 | 1014.9 |
| 20260902023532 | 55 | 201 | 6.0 | 14.0 | 0.00 | 0.02 | 0.00 | 91 | 1014.8 |
| 20260902023032 | 55 | 210 | 6.0 | 17.0 | 0.00 | 0.02 | 0.00 | 91 | 1014.8 |
| 20260902022531 | 55 | 175 | 8.0 | 17.0 | 0.00 | 0.02 | 0.00 | 91 | 1014.7 |
| 20260902022033 | 55 | 151 | 9.0 | 19.0 | 0.00 | 0.02 | 0.00 | 91 | 1014.7 |
| 20260902021541 | 55 | 359 | 7.0 | 19.0 | 0.00 | 0.02 | 0.00 | 90 | 1014.7 |
| 20260902021032 | 55 | 181 | 7.0 | 13.0 | 0.00 | 0.02 | 0.00 | 90 | 1014.6 |
| 20260902020033 | 55 | 189 | 7.0 | 14.0 | 0.00 | 0.02 | 0.00 | 89 | 1014.7 |
| 20260902015524 | 55 | 188 | 6.0 | 14.0 | 0.00 | 0.02 | 0.00 | 89 | 1014.8 |
| 20260902015024 | 55 | 359 | 5.0 | 14.0 | 0.00 | 0.02 | 0.00 | 89 | 1014.6 |
| 20260902014543 | 55 | 197 | 4.0 | 14.0 | 0.00 | 0.02 | 0.00 | 88 | 1014.6 |
| 20260902014025 | 56 | 137 | 4.0 | 14.0 | 0.00 | 0.02 | 0.00 | 88 | 1014.5 |
| 20260902013522 | 56 | 160 | 6.0 | 12.0 | 0.00 | 0.18 | 0.00 | 88 | 1014.4 |
| 20260902013021 | 56 | 204 | 5.0 | 13.0 | 0.00 | 0.18 | 0.00 | 88 | 1014.3 |
| 20260902012521 | 56 | 208 | 7.0 | 15.0 | 0.00 | 0.18 | 0.00 | 88 | 1014.3 |
| 20260902012023 | 56 | 177 | 7.0 | 13.0 | 0.00 | 0.18 | 0.00 | 89 | 1014.3 |
| 20260902011521 | 56 | 225 | 6.0 | 14.0 | 0.00 | 0.18 | 0.00 | 89 | 1014.3 |
| 20260902011021 | 56 | 220 | 6.0 | 14.0 | 0.00 | 0.18 | 0.00 | 90 | 1014.2 |
| 20260902010021 | 55 | 192 | 3.0 | 7.0 | 0.00 | 0.18 | 0.00 | 92 | 1014.0 |
| 20260902005519 | 56 | 87 | 0.0 | 4.0 | 0.00 | 0.18 | 0.00 | 92 | 1013.9 |
| 20260902005018 | 56 | 174 | 0.0 | 5.0 | 0.00 | 0.18 | 0.00 | 92 | 1013.8 |
| 20260902004523 | 56 | 174 | 0.0 | 6.0 | 0.00 | 0.18 | 0.00 | 92 | 1013.9 |
| 20260902004020 | 56 | 192 | 2.0 | 8.0 | 0.00 | 0.18 | 0.00 | 92 | 1013.7 |
| 20260902003520 | 56 | 247 | 3.0 | 8.0 | 0.00 | 0.64 | 0.00 | 91 | 1013.8 |
| 20260902003017 | 56 | 235 | 3.0 | 6.0 | 0.00 | 0.64 | 0.00 | 91 | 1013.9 |
| 20260902002516 | 57 | 204 | 1.0 | 8.0 | 0.00 | 0.64 | 0.00 | 90 | 1013.7 |
| 20260902002016 | 57 | 224 | 3.0 | 10.0 | 0.00 | 0.64 | 0.00 | 89 | 1013.7 |
| 20260902001516 | 57 | 189 | 4.0 | 12.0 | 0.00 | 0.64 | 0.00 | 89 | 1013.7 |
| 20260902001016 | 57 | 187 | 5.0 | 11.0 | 0.00 | 0.64 | 0.00 | 89 | 1013.6 |
| 20260902000027 | 58 | 235 | 5.0 | 11.0 | 0.00 | 0.64 | 0.00 | 89 | 1013.5 |
| 20260901235519 | 58 | 180 | 7.0 | 13.0 | 0.00 | 0.64 | 0.00 | 88 | 1013.5 |
| 20260901235015 | 58 | 188 | 6.0 | 15.0 | 0.00 | 0.64 | 0.00 | 88 | 1013.4 |
| 20260901234533 | 58 | 187 | 5.0 | 15.0 | 0.00 | 0.64 | 0.00 | 87 | 1013.4 |
| 20260901234014 | 58 | 191 | 6.0 | 10.0 | 0.00 | 0.64 | 0.00 | 87 | 1013.4 |
| 20260901233515 | 58 | 191 | 6.0 | 11.0 | 0.00 | 0.71 | 0.00 | 86 | 1013.2 |
| 20260901233014 | 58 | 183 | 7.0 | 14.0 | 0.00 | 0.71 | 0.00 | 86 | 1013.1 |
| 20260901232513 | 58 | 208 | 7.0 | 15.0 | 0.00 | 0.71 | 0.00 | 86 | 1013.1 |
| 20260901232015 | 58 | 214 | 7.0 | 14.0 | 0.00 | 0.71 | 0.00 | 85 | 1012.9 |
| 20260901231512 | 58 | 187 | 7.0 | 14.0 | 0.00 | 0.71 | 0.00 | 84 | 1012.8 |
| 20260901231011 | 58 | 226 | 7.0 | 12.0 | 0.00 | 0.71 | 0.00 | 84 | 1012.8 |
| 20260901230013 | 58 | 223 | 8.0 | 15.0 | 0.00 | 0.71 | 0.00 | 84 | 1012.6 |
| 20260901225510 | 58 | 191 | 6.0 | 12.0 | 0.00 | 0.71 | 0.00 | 84 | 1012.6 |
| 20260901225009 | 59 | 235 | 6.0 | 12.0 | 0.00 | 0.71 | 0.00 | 85 | 1012.5 |
| 20260901224509 | 59 | 235 | 6.0 | 13.0 | 0.00 | 0.71 | 0.00 | 86 | 1012.5 |
| 20260901224008 | 59 | 359 | 7.0 | 13.0 | 0.00 | 0.71 | 0.00 | 86 | 1012.4 |
| 20260901223508 | 58 | 222 | 6.0 | 12.0 | 0.00 | 0.91 | 0.00 | 86 | 1012.4 |
| 20260901223010 | 58 | 243 | 6.0 | 12.0 | 0.00 | 0.91 | 0.00 | 87 | 1012.3 |
| 20260901222506 | 58 | 183 | 6.0 | 12.0 | 0.00 | 0.91 | 0.00 | 87 | 1012.1 |
| 20260901222005 | 58 | 183 | 6.0 | 13.0 | 0.00 | 0.91 | 0.00 | 86 | 1012.0 |
| 20260901221518 | 58 | 212 | 6.0 | 12.0 | 0.00 | 0.91 | 0.00 | 86 | 1011.9 |
| 20260901221008 | 58 | 176 | 7.0 | 14.0 | 0.00 | 0.91 | 0.00 | 86 | 1011.8 |
| 20260901220012 | 59 | 197 | 6.0 | 17.0 | 0.00 | 0.91 | 0.00 | 86 | 1011.5 |
| 20260901215504 | 59 | 162 | 7.0 | 17.0 | 0.00 | 0.91 | 0.00 | 85 | 1011.4 |
| 20260901215004 | 59 | 192 | 8.0 | 16.0 | 0.00 | 0.91 | 0.00 | 85 | 1011.4 |
| 20260901214503 | 59 | 188 | 7.0 | 15.0 | 0.00 | 0.91 | 0.00 | 85 | 1011.4 |
| 20260901214003 | 58 | 173 | 7.0 | 14.0 | 0.00 | 1.09 | 0.00 | 86 | 1011.4 |
| 20260901213503 | 58 | 178 | 6.0 | 10.0 | 0.00 | 1.09 | 0.00 | 87 | 1011.4 |
| 20260901213002 | 58 | 248 | 3.0 | 6.0 | 0.00 | 1.09 | 0.00 | 87 | 1011.2 |
| 20260901212502 | 58 | 249 | 2.0 | 7.0 | 0.00 | 1.09 | 0.00 | 87 | 1011.1 |
| 20260901212100 | 58 | 170 | 2.0 | 7.0 | 0.00 | 1.09 | 0.00 | 86 | 1011.1 |
| 20260901211601 | 58 | 140 | 0.0 | 7.0 | 0.00 | 1.09 | 0.00 | 86 | 1011.0 |
| 20260901211100 | 59 | 191 | 0.0 | 7.0 | 0.00 | 1.09 | 0.00 | 85 | 1011.0 |
| 20260901210700 | 60 | 222 | 4.0 | 13.0 | 0.00 | 1.09 | 0.00 | 83 | 1011.0 |
| 20260901210101 | 60 | 359 | 5.0 | 13.0 | 0.00 | 1.09 | 0.00 | 82 | 1011.0 |
| 20260901205603 | 60 | 187 | 7.0 | 13.0 | 0.00 | 1.09 | 0.00 | 81 | 1010.9 |
| 20260901205100 | 60 | 214 | 4.0 | 15.0 | 0.00 | 1.09 | 0.00 | 81 | 1011.0 |
| 20260901204600 | 60 | 192 | 6.0 | 16.0 | 0.00 | 1.09 | 0.00 | 81 | 1010.9 |
| 20260901204059 | 60 | 228 | 8.0 | 16.0 | 0.00 | 1.09 | 0.00 | 80 | 1010.9 |
| 20260901203559 | 60 | 183 | 8.0 | 14.0 | 0.00 | 1.12 | 0.00 | 81 | 1010.7 |
| 20260901203104 | 60 | 151 | 6.0 | 11.0 | 0.00 | 1.12 | 0.00 | 82 | 1010.8 |
| 20260901202559 | 61 | 258 | 4.0 | 11.0 | 0.00 | 1.12 | 0.00 | 82 | 1010.6 |
| 20260901202057 | 61 | 235 | 5.0 | 11.0 | 0.00 | 1.12 | 0.00 | 82 | 1010.6 |
| 20260901201558 | 61 | 210 | 5.0 | 11.0 | 0.00 | 1.12 | 0.00 | 81 | 1010.6 |
| 20260901201056 | 61 | 245 | 3.0 | 11.0 | 0.00 | 1.12 | 0.00 | 81 | 1010.4 |
| 20260901200657 | 61 | 191 | 6.0 | 14.0 | 0.00 | 1.12 | 0.00 | 78 | 1010.2 |
| 20260901200053 | 61 | 191 | 6.0 | 14.0 | 0.00 | 1.12 | 0.00 | 78 | 1010.2 |
| 20260901195553 | 62 | 173 | 7.0 | 14.0 | 0.00 | 1.12 | 0.00 | 77 | 1010.0 |
| 20260901195052 | 63 | 206 | 4.0 | 10.0 | 0.00 | 1.12 | 0.00 | 78 | 1009.9 |
| 20260901194551 | 63 | 359 | 4.0 | 12.0 | 0.00 | 1.12 | 0.00 | 78 | 1009.8 |
| 20260901194052 | 63 | 359 | 5.0 | 12.0 | 0.00 | 1.12 | 0.00 | 77 | 1009.6 |
| 20260901193550 | 64 | 185 | 5.0 | 14.0 | 0.00 | 1.19 | 0.00 | 77 | 1009.7 |
| 20260901193104 | 64 | 177 | 7.0 | 16.0 | 0.00 | 1.19 | 0.00 | 74 | 1009.4 |
| 20260901192549 | 64 | 243 | 7.0 | 16.0 | 0.00 | 1.19 | 0.00 | 74 | 1009.5 |
| 20260901192048 | 64 | 226 | 4.0 | 11.0 | 0.00 | 1.19 | 0.00 | 76 | 1009.4 |
| 20260901191550 | 64 | 359 | 5.0 | 14.0 | 0.00 | 1.19 | 0.00 | 77 | 1009.3 |
| 20260901191047 | 64 | 191 | 7.0 | 14.0 | 0.00 | 1.19 | 0.00 | 77 | 1009.2 |
| 20260901190650 | 63 | 359 | 8.0 | 14.0 | 0.00 | 1.19 | 0.00 | 79 | 1009.2 |
| 20260901190047 | 63 | 359 | 7.0 | 14.0 | 0.00 | 1.19 | 0.00 | 79 | 1009.1 |
| 20260901185547 | 63 | 359 | 7.0 | 14.0 | 0.00 | 1.19 | 0.00 | 80 | 1009.1 |
| 20260901185047 | 63 | 245 | 9.0 | 13.0 | 0.00 | 1.19 | 0.00 | 78 | 1009.1 |
| 20260901184550 | 63 | 233 | 6.0 | 16.0 | 0.00 | 1.19 | 0.00 | 79 | 1009.0 |
| 20260901184047 | 63 | 190 | 6.0 | 21.0 | 0.00 | 1.19 | 0.00 | 80 | 1009.1 |
| 20260901183551 | 63 | 209 | 9.0 | 20.0 | 0.00 | 1.23 | 0.00 | 77 | 1008.9 |
| 20260901183046 | 63 | 249 | 7.0 | 15.0 | 0.00 | 1.23 | 0.00 | 77 | 1009.0 |
| 20260901182549 | 62 | 192 | 8.0 | 15.0 | 0.00 | 1.23 | 0.00 | 79 | 1008.9 |
| 20260901182046 | 62 | 202 | 6.0 | 16.0 | 0.00 | 1.23 | 0.00 | 82 | 1009.0 |
| 20260901181546 | 63 | 258 | 7.0 | 16.0 | 0.00 | 1.23 | 0.00 | 83 | 1008.9 |
| 20260901181046 | 62 | 222 | 6.0 | 13.0 | 0.00 | 1.23 | 0.00 | 85 | 1009.0 |
| 20260901180646 | 62 | 245 | 8.0 | 14.0 | 0.00 | 1.23 | 0.00 | 81 | 1008.9 |
| 20260901180100 | 62 | 259 | 9.0 | 14.0 | 0.00 | 1.23 | 0.00 | 82 | 1008.9 |
| 20260901175559 | 63 | 235 | 6.0 | 15.0 | 0.00 | 1.23 | 0.00 | 80 | 1008.8 |
| 20260901175102 | 63 | 262 | 6.0 | 14.0 | 0.00 | 1.23 | 0.00 | 82 | 1008.7 |
| 20260901174600 | 63 | 359 | 7.0 | 20.0 | 0.00 | 1.23 | 0.00 | 81 | 1008.8 |
| 20260901174059 | 64 | 224 | 10.0 | 20.0 | 0.00 | 1.23 | 0.00 | 77 | 1008.7 |
| 20260901173602 | 65 | 359 | 5.0 | 13.0 | 0.00 | 1.39 | 0.00 | 81 | 1008.8 |
| 20260901173100 | 64 | 359 | 5.0 | 13.0 | 0.00 | 1.39 | 0.00 | 85 | 1008.8 |
| 20260901172602 | 62 | 262 | 6.0 | 16.0 | 0.00 | 1.39 | 0.00 | 85 | 1008.6 |
| 20260901172057 | 62 | 359 | 8.0 | 16.0 | 0.00 | 1.39 | 0.00 | 84 | 1008.8 |
| 20260901171605 | 62 | 359 | 7.0 | 15.0 | 0.00 | 1.39 | 0.00 | 83 | 1008.8 |
| 20260901171058 | 62 | 359 | 6.0 | 15.0 | 0.00 | 1.39 | 0.00 | 82 | 1008.8 |
| 20260901170658 | 63 | 235 | 7.0 | 14.0 | 0.00 | 1.39 | 0.00 | 83 | 1008.9 |
| 20260901170045 | 63 | 359 | 5.0 | 12.0 | 0.00 | 1.39 | 0.00 | 82 | 1008.9 |
| 20260901165544 | 64 | 359 | 6.0 | 14.0 | 0.00 | 1.39 | 0.00 | 82 | 1009.0 |
| 20260901165044 | 64 | 359 | 6.0 | 15.0 | 0.00 | 1.39 | 0.00 | 81 | 1009.0 |
| 20260901164543 | 64 | 359 | 8.0 | 14.0 | 0.00 | 1.39 | 0.00 | 82 | 1009.1 |
| 20260901164045 | 64 | 359 | 8.0 | 14.0 | 0.00 | 1.39 | 0.00 | 82 | 1009.1 |
| 20260901163541 | 64 | 359 | 6.0 | 13.0 | 0.00 | 1.67 | 0.00 | 83 | 1009.2 |
| 20260901163043 | 64 | 359 | 7.0 | 13.0 | 0.00 | 1.67 | 0.00 | 82 | 1009.3 |
| 20260901162542 | 64 | 247 | 4.0 | 14.0 | 0.00 | 1.67 | 0.00 | 83 | 1009.3 |
| 20260901162039 | 64 | 359 | 6.0 | 14.0 | 0.00 | 1.67 | 0.00 | 84 | 1009.4 |
| 20260901161541 | 64 | 359 | 7.0 | 13.0 | 0.00 | 1.67 | 0.00 | 85 | 1009.2 |
| 20260901161040 | 63 | 186 | 8.0 | 13.0 | 0.00 | 1.67 | 0.00 | 86 | 1009.3 |
| 20260901160635 | 61 | 258 | 4.0 | 15.0 | 0.00 | 1.67 | 0.00 | 89 | 1009.3 |
| 20260901160048 | 61 | 258 | 5.0 | 15.0 | 0.00 | 1.67 | 0.00 | 91 | 1009.2 |
| 20260901155534 | 61 | 192 | 6.0 | 15.0 | 0.00 | 1.67 | 0.00 | 94 | 1009.4 |
| 20260901155036 | 60 | 359 | 5.0 | 13.0 | 0.00 | 1.67 | 0.00 | 92 | 1009.4 |
| 20260901154535 | 61 | 359 | 5.0 | 12.0 | 0.00 | 1.67 | 0.00 | 90 | 1009.4 |
| 20260901154034 | 62 | 258 | 8.0 | 13.0 | 0.00 | 1.67 | 0.00 | 88 | 1009.3 |
| 20260901153533 | 62 | 359 | 7.0 | 13.0 | 0.00 | 1.70 | 0.00 | 89 | 1009.2 |
| 20260901153037 | 62 | 359 | 5.0 | 15.0 | 0.00 | 1.70 | 0.00 | 89 | 1009.4 |
| 20260901152531 | 62 | 359 | 7.0 | 15.0 | 0.00 | 1.70 | 0.00 | 88 | 1009.4 |
| 20260901152031 | 62 | 252 | 5.0 | 16.0 | 0.00 | 1.70 | 0.00 | 91 | 1009.4 |
| 20260901151529 | 61 | 359 | 8.0 | 17.0 | 0.00 | 1.70 | 0.00 | 90 | 1009.5 |
| 20260901151027 | 61 | 359 | 5.0 | 17.0 | 0.00 | 1.70 | 0.00 | 92 | 1009.4 |
| 20260901150626 | 60 | 245 | 9.0 | 17.0 | 0.00 | 1.70 | 0.00 | 90 | 1009.4 |
| 20260901150034 | 61 | 202 | 9.0 | 17.0 | 0.00 | 1.70 | 0.00 | 89 | 1009.3 |
| 20260901145531 | 61 | 206 | 8.0 | 17.0 | 0.00 | 1.70 | 0.00 | 92 | 1009.4 |
| 20260901145029 | 61 | 359 | 10.0 | 17.0 | 0.00 | 1.70 | 0.00 | 92 | 1009.4 |
| 20260901144529 | 60 | 189 | 7.0 | 14.0 | 0.00 | 1.70 | 0.00 | 94 | 1009.3 |
| 20260901144026 | 60 | 359 | 7.0 | 15.0 | 0.00 | 1.70 | 0.00 | 96 | 1009.2 |
| 20260901143525 | 59 | 230 | 8.0 | 17.0 | 0.00 | 1.72 | 0.00 | 96 | 1009.2 |
| 20260901143023 | 58 | 359 | 9.0 | 16.0 | 0.00 | 1.72 | 0.00 | 97 | 1009.2 |
| 20260901142523 | 57 | 359 | 10.0 | 16.0 | 0.00 | 1.72 | 0.00 | 98 | 1009.3 |
| 20260901142020 | 57 | 359 | 8.0 | 18.0 | 0.00 | 1.72 | 0.00 | 98 | 1009.4 |
| 20260901141519 | 57 | 233 | 8.0 | 18.0 | 0.00 | 1.72 | 0.00 | 98 | 1009.3 |
| 20260901141019 | 57 | 244 | 9.0 | 17.0 | 0.00 | 1.72 | 0.00 | 98 | 1009.3 |
| 20260901140618 | 57 | 187 | 10.0 | 19.0 | 0.00 | 1.72 | 0.00 | 98 | 1009.0 |
| 20260901140013 | 57 | 359 | 10.0 | 19.0 | 0.00 | 1.72 | 0.00 | 98 | 1009.1 |
| 20260901135511 | 57 | 177 | 9.0 | 19.0 | 0.00 | 1.72 | 0.00 | 98 | 1009.0 |
| 20260901135010 | 57 | 359 | 9.0 | 21.0 | 0.00 | 1.72 | 0.00 | 98 | 1008.9 |
| 20260901134511 | 56 | 224 | 9.0 | 22.0 | 0.00 | 1.72 | 0.00 | 99 | 1008.9 |
| 20260901134008 | 56 | 359 | 9.0 | 18.0 | 0.00 | 1.72 | 0.00 | 99 | 1008.8 |
| 20260901133508 | 56 | 190 | 7.0 | 21.0 | 0.00 | 1.82 | 0.00 | 99 | 1008.8 |
| 20260901133007 | 56 | 222 | 12.0 | 21.0 | 0.00 | 1.82 | 0.00 | 98 | 1008.7 |
| 20260901132507 | 56 | 247 | 11.0 | 20.0 | 0.00 | 1.82 | 0.00 | 98 | 1008.7 |
| 20260901132007 | 56 | 251 | 10.0 | 20.0 | 0.00 | 1.82 | 0.00 | 98 | 1008.6 |
| 20260901131506 | 56 | 244 | 10.0 | 19.0 | 0.00 | 1.82 | 0.00 | 98 | 1008.5 |
| 20260901131005 | 56 | 359 | 10.0 | 21.0 | 0.00 | 1.82 | 0.00 | 98 | 1008.3 |
| 20260901130606 | 56 | 359 | 9.0 | 20.0 | 0.00 | 1.82 | 0.00 | 99 | 1008.5 |
| 20260901130006 | 56 | 359 | 7.0 | 20.0 | 0.00 | 1.82 | 0.00 | 98 | 1008.5 |
| 20260901125504 | 56 | 359 | 11.0 | 21.0 | 0.00 | 1.82 | 0.00 | 98 | 1008.5 |
| 20260901125003 | 56 | 359 | 12.0 | 21.0 | 0.00 | 1.82 | 0.00 | 98 | 1008.5 |
| 20260901124503 | 56 | 359 | 11.0 | 21.0 | 0.00 | 1.82 | 0.00 | 99 | 1008.3 |
| 20260901124001 | 56 | 359 | 11.0 | 20.0 | 0.00 | 2.13 | 0.00 | 99 | 1008.2 |
| 20260901123601 | 56 | 359 | 11.0 | 23.0 | 0.00 | 2.13 | 0.00 | 99 | 1008.1 |
| 20260901123100 | 56 | 251 | 12.0 | 26.0 | 0.00 | 2.13 | 0.00 | 99 | 1008.1 |
| 20260901122558 | 56 | 254 | 13.0 | 26.0 | 0.00 | 2.13 | 0.00 | 99 | 1008.1 |
| 20260901122057 | 56 | 256 | 12.0 | 25.0 | 0.00 | 2.13 | 0.00 | 99 | 1007.9 |
| 20260901121600 | 56 | 252 | 12.0 | 25.0 | 0.00 | 2.13 | 0.00 | 99 | 1007.8 |
| 20260901121057 | 56 | 359 | 14.0 | 24.0 | 0.00 | 2.13 | 0.00 | 99 | 1007.9 |
| 20260901120556 | 56 | 359 | 13.0 | 23.0 | 0.00 | 2.13 | 0.00 | 98 | 1007.5 |
| 20260901115556 | 56 | 359 | 12.0 | 27.0 | 0.00 | 2.13 | 0.00 | 98 | 1007.5 |
| 20260901115055 | 56 | 257 | 16.0 | 27.0 | 0.00 | 2.13 | 0.00 | 98 | 1007.6 |
| 20260901114554 | 56 | 359 | 14.0 | 25.0 | 0.00 | 2.13 | 0.00 | 98 | 1007.3 |
| 20260901114052 | 56 | 359 | 13.0 | 24.0 | 0.00 | 2.13 | 0.00 | 99 | 1007.3 |
| 20260901113552 | 56 | 359 | 12.0 | 24.0 | 0.00 | 2.13 | 0.00 | 98 | 1007.3 |
| 20260901113111 | 56 | 359 | 13.0 | 26.0 | 0.00 | 2.13 | 0.00 | 98 | 1007.1 |
| 20260901112552 | 56 | 359 | 17.0 | 27.0 | 0.00 | 2.13 | 0.00 | 98 | 1007.1 |
| 20260901112050 | 56 | 359 | 16.0 | 27.0 | 0.00 | 2.13 | 0.00 | 98 | 1006.9 |
| 20260901111550 | 56 | 247 | 15.0 | 26.0 | 0.00 | 2.13 | 0.00 | 99 | 1006.8 |
| 20260901111050 | 56 | 359 | 17.0 | 27.0 | 0.00 | 2.13 | 0.00 | 99 | 1006.7 |
| 20260901110551 | 55 | 249 | 17.0 | 27.0 | 0.00 | 2.13 | 0.00 | 98 | 1006.6 |
| 20260901105547 | 55 | 359 | 19.0 | 28.0 | 0.00 | 2.13 | 0.00 | 98 | 1006.6 |
| 20260901105046 | 55 | 359 | 20.0 | 32.0 | 0.00 | 2.13 | 0.00 | 98 | 1006.7 |
| 20260901104545 | 55 | 359 | 20.0 | 34.0 | 0.00 | 2.13 | 0.00 | 98 | 1006.4 |
| 20260901104042 | 55 | 359 | 20.0 | 34.0 | 0.00 | 2.13 | 0.00 | 98 | 1006.5 |
| 20260901103543 | 55 | 359 | 21.0 | 38.0 | 0.00 | 2.14 | 2.13 | 98 | 1006.1 |
| 20260901103042 | 55 | 359 | 23.0 | 38.0 | 0.00 | 2.14 | 2.13 | 98 | 1005.9 |
| 20260901102542 | 55 | 359 | 23.0 | 37.0 | 0.00 | 2.14 | 2.13 | 98 | 1006.0 |
| 20260901102042 | 55 | 359 | 22.0 | 34.0 | 0.00 | 2.14 | 2.13 | 98 | 1005.6 |
| 20260901101603 | 55 | 359 | 24.0 | 36.0 | 0.00 | 2.14 | 2.13 | 98 | 1005.6 |
| 20260901101042 | 55 | 359 | 27.0 | 36.0 | 0.00 | 2.14 | 2.13 | 98 | 1005.6 |
| 20260901100542 | 55 | 359 | 26.0 | 35.0 | 0.00 | 2.14 | 2.13 | 98 | 1005.3 |
| 20260901100105 | 55 | 359 | 25.0 | 35.0 | 0.00 | 2.14 | 2.13 | 98 | 1005.4 |
| 20260901095548 | 55 | 359 | 26.0 | 35.0 | 0.00 | 2.14 | 2.13 | 98 | 1005.2 |
| 20260901095048 | 55 | 359 | 26.0 | 35.0 | 0.00 | 2.14 | 2.13 | 98 | 1005.0 |
| 20260901094548 | 55 | 359 | 26.0 | 32.0 | 0.00 | 2.14 | 2.13 | 98 | 1004.8 |
| 20260901094048 | 55 | 359 | 23.0 | 34.0 | 0.00 | 2.14 | 2.13 | 98 | 1005.0 |
| 20260901093550 | 55 | 359 | 25.0 | 34.0 | 0.00 | 2.14 | 2.13 | 98 | 1005.0 |
| 20260901093047 | 55 | 359 | 23.0 | 41.0 | 0.00 | 2.14 | 2.13 | 98 | 1004.9 |
| 20260901092547 | 55 | 359 | 27.0 | 38.0 | 0.00 | 2.14 | 2.13 | 98 | 1004.8 |
| 20260901092048 | 55 | 359 | 27.0 | 40.0 | 0.00 | 2.14 | 2.13 | 98 | 1004.6 |
| 20260901091548 | 55 | 359 | 26.0 | 40.0 | 0.00 | 2.14 | 2.13 | 98 | 1004.5 |
| 20260901091047 | 55 | 260 | 26.0 | 36.0 | 0.00 | 2.14 | 2.13 | 98 | 1004.6 |
| 20260901090547 | 55 | 359 | 26.0 | 39.0 | 0.00 | 2.14 | 2.13 | 98 | 1004.5 |
| 20260901090045 | 55 | 359 | 25.0 | 39.0 | 0.00 | 2.14 | 2.13 | 98 | 1004.6 |
| 20260901085545 | 55 | 359 | 26.0 | 36.0 | 0.00 | 2.14 | 2.13 | 98 | 1004.5 |
| 20260901085041 | 55 | 359 | 25.0 | 38.0 | 0.00 | 2.14 | 2.13 | 98 | 1004.5 |
| 20260901084546 | 55 | 359 | 27.0 | 38.0 | 0.01 | 2.14 | 2.13 | 98 | 1004.3 |
| 20260901084042 | 55 | 359 | 27.0 | 38.0 | 0.01 | 2.14 | 2.13 | 98 | 1004.6 |
| 20260901083542 | 55 | 359 | 27.0 | 39.0 | 0.01 | 2.14 | 2.13 | 98 | 1004.5 |
| 20260901083041 | 55 | 359 | 29.0 | 39.0 | 0.01 | 2.14 | 2.13 | 98 | 1004.4 |
| 20260901082540 | 55 | 359 | 26.0 | 37.0 | 0.01 | 2.14 | 2.13 | 97 | 1004.5 |
| 20260901082044 | 55 | 359 | 25.0 | 39.0 | 0.01 | 2.14 | 2.13 | 97 | 1004.6 |
| 20260901081545 | 56 | 359 | 27.0 | 39.0 | 0.01 | 2.14 | 2.13 | 97 | 1004.3 |
| 20260901081040 | 56 | 359 | 24.0 | 38.0 | 0.01 | 2.14 | 2.13 | 96 | 1004.4 |
| 20260901080540 | 56 | 359 | 28.0 | 38.0 | 0.01 | 2.14 | 2.13 | 96 | 1004.2 |
| 20260901080043 | 57 | 359 | 29.0 | 38.0 | 0.01 | 2.14 | 2.13 | 96 | 1004.2 |
| 20260901075537 | 57 | 359 | 28.0 | 38.0 | 0.01 | 2.14 | 2.13 | 96 | 1004.0 |
| 20260901075038 | 56 | 359 | 27.0 | 41.0 | 0.01 | 2.14 | 2.13 | 96 | 1004.0 |
| 20260901074537 | 56 | 359 | 26.0 | 41.0 | 0.00 | 2.13 | 2.13 | 96 | 1004.0 |
| 20260901074037 | 56 | 359 | 26.0 | 37.0 | 0.00 | 2.13 | 2.13 | 96 | 1004.1 |
| 20260901073536 | 56 | 359 | 25.0 | 35.0 | 0.00 | 2.14 | 2.13 | 96 | 1004.1 |
| 20260901073040 | 56 | 359 | 27.0 | 35.0 | 0.00 | 2.14 | 2.13 | 96 | 1004.2 |
| 20260901072537 | 56 | 259 | 26.0 | 35.0 | 0.00 | 2.14 | 2.13 | 95 | 1004.5 |
| 20260901072034 | 56 | 359 | 23.0 | 30.0 | 0.00 | 2.14 | 2.13 | 95 | 1004.3 |
| 20260901071534 | 56 | 359 | 21.0 | 32.0 | 0.00 | 2.14 | 2.13 | 95 | 1004.4 |
| 20260901071033 | 56 | 359 | 23.0 | 32.0 | 0.00 | 2.14 | 2.13 | 95 | 1004.5 |
| 20260901070532 | 56 | 359 | 20.0 | 27.0 | 0.00 | 2.14 | 2.13 | 95 | 1005.0 |
| 20260901070037 | 55 | 359 | 21.0 | 27.0 | 0.00 | 2.14 | 2.13 | 95 | 1004.9 |
| 20260901065531 | 55 | 359 | 18.0 | 27.0 | 0.00 | 2.14 | 2.13 | 95 | 1005.1 |
| 20260901065031 | 56 | 359 | 17.0 | 25.0 | 0.00 | 2.14 | 2.13 | 94 | 1005.2 |
| 20260901064531 | 56 | 359 | 16.0 | 23.0 | 0.00 | 2.14 | 2.13 | 93 | 1004.9 |
| 20260901064029 | 56 | 359 | 16.0 | 25.0 | 0.00 | 2.14 | 2.13 | 92 | 1005.2 |
| 20260901063529 | 56 | 359 | 18.0 | 25.0 | 0.00 | 2.14 | 2.13 | 92 | 1005.7 |
| 20260901063030 | 56 | 359 | 14.0 | 20.0 | 0.00 | 2.14 | 2.13 | 91 | 1005.1 |
| 20260901062528 | 56 | 359 | 12.0 | 20.0 | 0.00 | 2.14 | 2.13 | 90 | 1005.7 |
| 20260901062031 | 56 | 359 | 15.0 | 20.0 | 0.00 | 2.14 | 2.13 | 91 | 1006.1 |
| 20260901061527 | 56 | 359 | 13.0 | 19.0 | 0.00 | 2.14 | 2.13 | 91 | 1006.1 |
| 20260901061027 | 56 | 359 | 14.0 | 19.0 | 0.00 | 2.14 | 2.13 | 91 | 1005.9 |
| 20260901060526 | 56 | 359 | 13.0 | 16.0 | 0.00 | 2.14 | 2.13 | 90 | 1006.3 |
| 20260901060026 | 56 | 359 | 13.0 | 16.0 | 0.00 | 2.14 | 2.13 | 91 | 1006.2 |
| 20260901055525 | 55 | 359 | 12.0 | 14.0 | 0.00 | 2.14 | 2.13 | 93 | 1006.4 |
| 20260901055030 | 55 | 359 | 11.0 | 16.0 | 0.00 | 2.14 | 2.13 | 93 | 1006.6 |
| 20260901054525 | 55 | 359 | 12.0 | 16.0 | 0.00 | 2.14 | 2.13 | 94 | 1006.7 |
| 20260901054028 | 55 | 359 | 10.0 | 15.0 | 0.00 | 2.14 | 2.13 | 96 | 1006.8 |
| 20260901053525 | 55 | 359 | 11.0 | 15.0 | 0.00 | 2.27 | 2.13 | 96 | 1006.8 |
| 20260901053029 | 55 | 359 | 10.0 | 13.0 | 0.00 | 2.27 | 2.13 | 95 | 1006.9 |
| 20260901052524 | 55 | 359 | 10.0 | 13.0 | 0.00 | 2.27 | 2.13 | 96 | 1006.9 |
| 20260901052024 | 55 | 359 | 10.0 | 14.0 | 0.00 | 2.27 | 2.13 | 96 | 1006.9 |
| 20260901051524 | 55 | 359 | 10.0 | 14.0 | 0.00 | 2.27 | 2.13 | 95 | 1007.0 |
| 20260901051024 | 55 | 359 | 8.0 | 13.0 | 0.00 | 2.27 | 2.13 | 95 | 1007.1 |
| 20260901050524 | 55 | 359 | 8.0 | 13.0 | 0.00 | 2.27 | 2.13 | 93 | 1007.2 |
| 20260901045529 | 56 | 359 | 8.0 | 10.0 | 0.00 | 2.27 | 2.13 | 93 | 1007.2 |
| 20260901045029 | 56 | 359 | 8.0 | 10.0 | 0.00 | 2.27 | 2.13 | 93 | 1007.1 |
| 20260901044534 | 55 | 359 | 6.0 | 10.0 | 0.00 | 2.27 | 2.13 | 94 | 1007.0 |
| 20260901044028 | 55 | 354 | 8.0 | 10.0 | 0.00 | 2.27 | 2.13 | 95 | 1007.4 |
| 20260901043528 | 55 | 354 | 7.0 | 12.0 | 0.00 | 2.80 | 2.13 | 96 | 1007.7 |
| 20260901043036 | 55 | 359 | 9.0 | 12.0 | 0.00 | 2.80 | 2.13 | 96 | 1007.6 |
| 20260901042532 | 55 | 12 | 9.0 | 12.0 | 0.00 | 2.80 | 2.13 | 96 | 1007.7 |
| 20260901042034 | 55 | 346 | 9.0 | 14.0 | 0.00 | 2.80 | 2.13 | 97 | 1007.9 |
| 20260901041528 | 55 | 359 | 9.0 | 16.0 | 0.00 | 2.80 | 2.13 | 98 | 1007.9 |
| 20260901041027 | 55 | 359 | 12.0 | 16.0 | 0.00 | 2.80 | 2.13 | 98 | 1008.4 |
| 20260901040526 | 55 | 359 | 11.0 | 16.0 | 0.00 | 2.80 | 2.13 | 98 | 1008.4 |
| 20260901040020 | 55 | 359 | 12.0 | 16.0 | 0.00 | 2.80 | 2.13 | 98 | 1008.4 |
| 20260901035524 | 55 | 4 | 10.0 | 15.0 | 0.00 | 2.80 | 2.13 | 98 | 1008.4 |
| 20260901035021 | 55 | 359 | 10.0 | 15.0 | 0.00 | 2.80 | 2.13 | 98 | 1008.4 |
| 20260901034520 | 55 | 359 | 12.0 | 15.0 | 0.00 | 2.80 | 2.13 | 98 | 1009.0 |
| 20260901034022 | 55 | 4 | 8.0 | 15.0 | 0.00 | 2.80 | 2.13 | 98 | 1008.6 |
| 20260901033519 | 55 | 354 | 10.0 | 15.0 | 0.00 | 2.99 | 2.13 | 98 | 1009.2 |
| 20260901033023 | 55 | 10 | 3.0 | 11.0 | 0.00 | 2.99 | 2.13 | 98 | 1008.6 |
| 20260901032519 | 55 | 45 | 8.0 | 11.0 | 0.01 | 2.99 | 2.13 | 98 | 1008.2 |
| 20260901032018 | 54 | 359 | 0.0 | 5.0 | 0.01 | 2.99 | 2.13 | 98 | 1009.2 |
| 20260901031518 | 54 | 359 | 0.0 | 3.0 | 0.01 | 2.99 | 2.13 | 98 | 1009.2 |
| 20260901031016 | 54 | 177 | 0.0 | 4.0 | 0.02 | 2.99 | 2.13 | 98 | 1009.1 |
| 20260901030516 | 55 | 173 | 1.0 | 3.0 | 0.02 | 2.99 | 2.13 | 98 | 1009.3 |
| 20260901030018 | 55 | 175 | 1.0 | 3.0 | 0.02 | 2.99 | 2.13 | 98 | 1009.3 |
| 20260901025515 | 55 | 359 | 1.0 | 4.0 | 0.02 | 2.99 | 2.13 | 98 | 1009.4 |
| 20260901025017 | 55 | 359 | 2.0 | 4.0 | 0.02 | 2.99 | 2.13 | 98 | 1009.3 |
| 20260901024517 | 55 | 79 | 1.0 | 4.0 | 0.02 | 2.99 | 2.13 | 98 | 1010.3 |